Preview of NWS' New Version of Forecast
This preview is not operational and should not be used for support decisions.
Latest weather observations around

Temple, Draughon-Miller Central Texas Regional Airport (KTPL)

Using English Units (Switch to International System of Units)
Date/ Time (CDT) Wind (mph) Vis. (mi) Weather Sky Cond. Temp (°F) Rel. Humidity Wind Chill (°F) Heat Index (°F) Pressure Precip. (in)
Air Dwpt 6 hour Altimeter (inHg) Sea level (inHg) 1 hr 3 hr 6 hr
Max Min
Sep 20 14:51   10 Partly Cloudy SCT060 94 67     41%   98 29.92 29.88      
Sep 20 13:51 S 13 10 Partly Cloudy SCT055 93 68     44%   97 29.95 29.91      
Sep 20 12:51 SSE 22 10 Mostly Cloudy and Windy BKN047 BKN055 93 71     49%   100 29.96 29.93      
Sep 20 11:51 S 18 10 Partly Cloudy SCT041 90 71     54%   96 29.99 29.95      
Sep 20 10:51   10 Partly Cloudy SCT032 89 73     59%   97 29.98 29.95      
Sep 20 10:27 S 22 10 Partly Cloudy and Windy SCT023 SCT031 84 73     70%   91 29.99        
Sep 20 09:51 SSE 22 10 Mostly Cloudy and Windy BKN019 85 76     75%   94 29.98 29.95      
Sep 20 09:10 S 20 10 Cloudy and Windy OVC015 82 77     84%   91 29.97        
Sep 20 08:51 SSE 18 10 Cloudy OVC013 80 77     90%   86 29.97 29.93      
Sep 20 08:18 S 15 10 Cloudy OVC013 79 77     94%   83 29.97        
Sep 20 07:59 SSE 16 10 Mostly Cloudy BKN015 BKN026 BKN033 79 77     94%   83 29.96        
Sep 20 07:51 SSE 14 10 Mostly Cloudy SCT015 SCT026 BKN033 78 77     96%   81 29.97 29.93      
Sep 20 07:39 SSE 16 10 Cloudy SCT013 BKN025 OVC041 79 77     94%   83 29.96        
Sep 20 06:51 SSE 14 10 Cloudy OVC013 78 77     96%   81 29.95 29.91      
Sep 20 05:51 SSE 17 10 Cloudy OVC013 78 78     100%   81 29.93 29.89      
Sep 20 04:51 SSE 9 10 Cloudy OVC011 78 78     100%   81   29.88      
Sep 20 03:51 SE 9 10 Cloudy OVC011 79 77     94%   83 29.92 29.88      
Sep 20 02:51 SSE 13 10 Cloudy OVC011 79 77     94%   83 29.92 29.88      
Sep 20 01:51 SSE 10 10 Cloudy OVC011 78 77     96%   81 29.92 29.88      
Sep 20 00:51 SSE 10 10 Cloudy OVC011 78 77     96%   81 29.91 29.88      
Sep 19 23:51 SSE 14 10 Cloudy OVC013 78 75     90%   80 29.91 29.88      
Sep 19 23:18 SSE 9 10 Cloudy OVC013 79 73     84%   82 29.91        
Sep 19 22:51 SSE 13 10 Cloudy OVC017 78 74     87%   80 29.91 29.88      
Sep 19 22:26 SE 9 10 Mostly Cloudy BKN017 79 73     84%   82 29.9        
Sep 19 21:51 SE 10 10 Clear CLR 78 74     87%   80 29.88 29.85      
Sep 19 20:51 SSE 11 10 Clear CLR 79 73     82%   82 29.87 29.83      
Sep 19 19:51 SE 10 10 Partly Cloudy SCT040 SCT049 83 74     74%   89 29.84 29.8      
Sep 19 19:25 SE 16 10 Cloudy FEW033 BKN041 OVC060 84 73     70%   91 29.84        
Sep 19 18:51 ENE 11 10 Mostly Cloudy BKN060 91 69     49%   96 29.82 29.78      
Sep 19 17:51 NE 11 10 Clear CLR 93 69     46%   98 29.8 29.77      
Sep 19 16:51 NE 7 10 Partly Cloudy SCT065 93 69     46%   98 29.81 29.78      
Sep 19 15:51 3 10 Mostly Clear FEW055 94 69     45%   99 29.81 29.78      
Sep 19 14:51 N 9 9 Mostly Cloudy BKN055 94 70     46%   100 29.84 29.81      
Sep 19 13:51 7 10 Partly Cloudy SCT046 91 71     52%   98 29.85 29.81      
Sep 19 12:51 SW 5 10 Partly Cloudy FEW041 SCT048 91 71     52%   98 29.89 29.85      
Sep 19 11:51 Calm 10 Clear CLR 89 72     57%   96 29.91 29.88      
Sep 19 10:51 6 9 Clear CLR 86 73     65%   93 29.91 29.88      
Sep 19 09:51 N 7 9 Clear CLR 82 73     74%   87 29.91 29.88      
Sep 19 08:51 NE 3 10 Clear CLR 78 74     87%   80 29.9 29.87      
Sep 19 07:51 3 10 Clear CLR 73 73     100%   75 29.9 29.86      
Sep 19 06:51 N 7 10 Clear CLR 71 71     100%   73   29.85      
Sep 19 05:51 NNW 6 10 Clear CLR 70 70     100%     29.87 29.84      
Sep 19 04:51 NNW 5 10 Clear CLR 70 70     100%     29.88 29.85      
Sep 19 03:51 NNW 3 10 Clear CLR 71 71     100%   73 29.88 29.85      
Sep 19 02:51 Calm 10 Clear CLR 73 72     96%   75 29.89 29.86      
Sep 19 01:51 NE 5 10 Clear CLR 75 72     90%   76 29.89 29.85      
Sep 19 00:51 E 3 10 Clear CLR 76 71     85%   77   29.87      
Sep 18 23:51 SE 3 10 Clear CLR 77 71     82%   78 29.9 29.86      
Sep 18 22:51 E 3 10 Clear CLR 80 71     74%   84 29.89 29.86      
Sep 18 21:51 NE 7 10 Clear CLR 81 71     72%   85 29.88 29.85      
Sep 18 20:51 NE 7 10 Clear CLR 82 71     69%   86 29.88 29.84      
Sep 18 19:51 NE 5 10 Clear CLR 84 70     63%   88 29.87 29.83      
Sep 18 18:51 NE 8 10 Clear CLR 88 69     54%   92 29.86 29.82      
Sep 18 17:51 NE 8 10 Cloudy SCT048 OVC080 90 70     52%   95 29.85 29.82      
Sep 18 16:51 N 7 10 Mostly Cloudy BKN080 90 70     52%   95   29.83      
Sep 18 15:51 N 5 10 Cloudy OVC070 89 70     53%   94 29.87 29.83      
Sep 18 14:51 N 7 10 Cloudy SCT046 OVC065 89 70     53%   94 29.88 29.85      
Sep 18 13:51 N 6 10 Mostly Cloudy SCT038 BKN060 90 71     54%   96 29.9 29.87      
Sep 18 12:51 WNW 7 10 Mostly Cloudy BKN033 BKN042 89 72     57%   96 29.93 29.89      
Sep 18 12:41 NNW 8 10 Cloudy BKN031 OVC042 88 73     62%   96 29.93        
Sep 18 11:19 NW 9 10 Mostly Cloudy BKN020 84 73     70%   91          
Sep 18 11:00 NW 7 10 Partly Cloudy SCT018 82 73     74%   88          
Sep 18 08:51 N 7 10 Cloudy OVC008 74 74     100%   76 29.94 29.9      
Sep 18 07:51 NW 6 10 Cloudy OVC008 72 72     100%   74 29.93 29.9      
Sep 18 07:16 NNW 5 10 Mostly Cloudy BKN008 70 70     100%     29.93        
Sep 18 06:51 NW 3 10 Clear CLR 70 70     100%     29.93 29.89      
Sep 18 05:51 NW 5 10 Clear CLR 69 69     100%     29.91 29.87      
Sep 18 04:51 N 5 10 Clear CLR 70 70     100%     29.9 29.87      
Sep 18 03:51 N 5 10 Clear CLR 71 71     100%   73 29.9 29.87      
Sep 18 02:51 N 3 10 Clear CLR 72 72     100%   74 29.91 29.88      
Sep 18 01:51 NE 5 10 Clear CLR 73 73     100%   75 29.92 29.89      
Sep 18 00:51 N 3 10 Clear CLR 74 73     97%   76 29.92 29.89      
Sep 17 23:51 E 7 10 Clear CLR 77 72     84%   78 29.93 29.9      
Sep 17 22:51 E 5 10 Clear CLR 77 73     88%   79 29.93 29.9      
Sep 17 21:51 ENE 8 10 Clear   80 73     79%   84 29.93 29.9      
Sep 17 20:51 E 10 10 Mostly Clear FEW090 81 72     74%   85 29.92 29.88      
Sep 17 19:51 ENE 8 10 Cloudy OVC100 83 72     70%   88 29.9 29.87      
Sep 17 18:51 E 13 10 Cloudy OVC090 86 71     61%   92   29.86      
Sep 17 17:51 E 11 10 Partly Cloudy SCT095 88 71     57%   94 29.89 29.86      
Sep 17 16:51 ENE 13 10 Mostly Clear FEW100 89 71     55%   95 29.89 29.85      
Sep 17 15:51 E 14 10 Cloudy SCT065 OVC090 88 71     57%   94 29.91 29.88      
Sep 17 14:51 E 11 10 Cloudy OVC080 88 70     55%   93 29.92 29.89      
Sep 17 13:51 E 13 10 Mostly Cloudy SCT046 BKN055 87 69     55%   91 29.95 29.92      
May 13 11:17 S 16 10 Partly Cloudy SCT022 82 72     70%   87 30.04        
May 13 09:51 S 16 10 Partly Cloudy SCT018 80 71     74%   84 30.04 30.04      
Notice The following observation data may not be complete
May 12 18:51   10 Mostly Cloudy BKN060          %              
May 12 03:51 SSE 15 10 Partly Cloudy FEW017 SCT037 72 70     93%   73 29.93 29.93      
May 11 19:51 SSE 16 10 Clear CLR 83 60     46%   83 29.86 29.87      
Notice The following observation data may not be complete
Jun 11 22:51   10 Clear CLR          %              
Jun 11 05:51 SSE 11 10 Clear CLR 71 69     93%   72 29.91 29.91      
Jun 08 21:51 ESE 9 10 Clear CLR 79 66     65%   80 29.88 29.89      
Jun 08 10:51 SSE 8 10 Clear CLR 82 64     55%   84 30.02 30.02      
Jun 08 09:51 SSE 9 10 Mostly Cloudy BKN050 79 63     58%   79 30.03 30.03      
Jun 07 23:51 NE 5 10 Clear CLR 73 67     81%   74 29.96 29.96      
Jun 07 21:51 NE 5 10 Clear CLR 78 66     67%   79 29.94 29.94      
Jun 07 11:51 N 5 10 Clear   87 65     48%   89 29.98 29.98      
Notice The following observation data may not be complete
Jun 06 10:24   10 Mostly Cloudy SCT022 BKN033          %              
Jun 05 18:51 N 8 10 Clear CLR 79 71     77%   82 29.75 29.76